Time,TemperatureF,DewpointF,PressureIn,WindDirection,WindDirectionDegrees,WindSpeedMPH,WindSpeedGustMPH,Humidity,HourlyPrecipIn,Conditions,Clouds,dailyrainin,SoftwareType,DateUTC
2013-11-17 00:02:00,56.0,46.0,29.91,South,180,0.0,1.0,69,0.00,,SKC,0.00,VWS V14.01,2013-11-17 07:02:00,
2013-11-17 00:07:00,56.0,46.0,29.91,South,180,0.0,0.0,69,0.00,,SKC,0.00,VWS V14.01,2013-11-17 07:07:00,
2013-11-17 00:12:00,55.0,45.0,29.91,South,180,1.0,1.0,69,0.00,,SKC,0.00,VWS V14.01,2013-11-17 07:12:00,
2013-11-17 00:18:00,55.0,45.4,29.91,South,180,1.0,1.0,70,0.00,,SKC,0.00,VWS V14.01,2013-11-17 07:18:00,
2013-11-17 00:24:00,55.0,45.8,29.91,South,180,0.0,0.0,71,0.00,,SKC,0.00,VWS V14.01,2013-11-17 07:24:00,
2013-11-17 00:29:00,55.0,45.8,29.91,South,180,0.0,0.0,71,0.00,,SKC,0.00,VWS V14.01,2013-11-17 07:29:00,
2013-11-17 00:34:00,55.0,45.8,29.91,South,180,1.0,1.0,71,0.00,,SKC,0.00,VWS V14.01,2013-11-17 07:34:00,
2013-11-17 00:39:00,55.0,45.8,29.91,South,180,0.0,1.0,71,0.00,,SKC,0.00,VWS V14.01,2013-11-17 07:39:00,
2013-11-17 00:45:00,55.0,46.2,29.91,South,180,0.0,0.0,72,0.00,,SKC,0.00,VWS V14.01,2013-11-17 07:45:00,
2013-11-17 00:51:00,55.0,46.2,29.91,South,180,0.0,1.0,72,0.00,,SKC,0.00,VWS V14.01,2013-11-17 07:51:00,
2013-11-17 00:57:00,55.0,46.2,29.91,WNW,292,3.0,3.0,72,0.00,,SKC,0.00,VWS V14.01,2013-11-17 07:57:00,
2013-11-17 01:02:00,55.0,46.2,29.92,WNW,292,4.0,5.0,72,0.00,,SKC,0.00,VWS V14.01,2013-11-17 08:02:00,
2013-11-17 01:07:00,55.0,46.2,29.92,WNW,292,5.0,5.0,72,0.00,,SKC,0.00,VWS V14.01,2013-11-17 08:07:00,
2013-11-17 01:12:00,55.0,46.5,29.92,WNW,292,5.0,5.0,73,0.00,,SKC,0.00,VWS V14.01,2013-11-17 08:12:00,
2013-11-17 01:18:00,55.0,46.5,29.92,WNW,292,5.0,5.0,73,0.00,,SKC,0.00,VWS V14.01,2013-11-17 08:18:00,
2013-11-17 01:24:00,55.0,46.5,29.92,WNW,292,5.0,5.0,73,0.00,,SKC,0.00,VWS V14.01,2013-11-17 08:24:00,
2013-11-17 01:29:00,55.0,46.9,29.92,WNW,292,5.0,5.0,74,0.00,,SKC,0.00,VWS V14.01,2013-11-17 08:29:00,
2013-11-17 01:34:00,55.0,46.9,29.92,WNW,292,5.0,5.0,74,0.00,,SKC,0.00,VWS V14.01,2013-11-17 08:34:00,
2013-11-17 01:39:00,55.0,47.2,29.93,NW,315,4.0,5.0,75,0.00,,SKC,0.00,VWS V14.01,2013-11-17 08:39:00,
2013-11-17 01:44:00,55.0,47.2,29.93,NW,315,5.0,5.0,75,0.00,,SKC,0.00,VWS V14.01,2013-11-17 08:44:00,
2013-11-17 01:49:00,55.0,47.2,29.93,NW,315,5.0,5.0,75,0.00,,SKC,0.00,VWS V14.01,2013-11-17 08:49:00,
2013-11-17 01:54:00,55.0,47.6,29.93,NW,315,5.0,5.0,76,0.00,,SKC,0.00,VWS V14.01,2013-11-17 08:54:00,
2013-11-17 01:59:00,55.0,47.6,29.93,NW,315,5.0,5.0,76,0.00,,SKC,0.00,VWS V14.01,2013-11-17 08:59:00,
2013-11-17 02:05:00,55.0,47.6,29.92,NW,315,4.0,5.0,76,0.00,,SKC,0.00,VWS V14.01,2013-11-17 09:05:00,
2013-11-17 02:11:00,55.0,47.9,29.93,NW,315,4.0,4.0,77,0.00,,SKC,0.00,VWS V14.01,2013-11-17 09:11:00,
2013-11-17 02:17:00,55.0,47.9,29.93,NW,315,4.0,5.0,77,0.00,,SKC,0.00,VWS V14.01,2013-11-17 09:17:00,
2013-11-17 02:22:00,54.0,47.0,29.93,NW,315,4.0,5.0,77,0.00,,SKC,0.00,VWS V14.01,2013-11-17 09:22:00,
2013-11-17 02:27:00,54.0,47.3,29.93,NW,315,4.0,5.0,78,0.00,,SKC,0.00,VWS V14.01,2013-11-17 09:27:00,
2013-11-17 02:32:00,54.0,47.3,29.93,NW,315,4.0,5.0,78,0.00,,SKC,0.00,VWS V14.01,2013-11-17 09:32:00,
2013-11-17 02:37:00,54.0,47.6,29.93,NW,315,5.0,5.0,79,0.00,,SKC,0.00,VWS V14.01,2013-11-17 09:37:00,
2013-11-17 02:42:00,54.0,47.6,29.93,NW,315,5.0,5.0,79,0.00,,SKC,0.00,VWS V14.01,2013-11-17 09:42:00,
2013-11-17 02:47:00,54.0,47.6,29.93,NW,315,5.0,5.0,79,0.00,,SKC,0.00,VWS V14.01,2013-11-17 09:47:00,
2013-11-17 02:52:00,55.0,48.6,29.93,NW,315,3.0,3.0,79,0.00,,SKC,0.00,VWS V14.01,2013-11-17 09:52:00,
2013-11-17 02:57:00,55.0,48.6,29.93,WNW,292,5.0,5.0,79,0.00,,SKC,0.00,VWS V14.01,2013-11-17 09:57:00,
2013-11-17 03:02:00,55.0,48.6,29.93,NW,315,5.0,5.0,79,0.00,,SKC,0.00,VWS V14.01,2013-11-17 10:02:00,
2013-11-17 03:07:00,55.0,48.6,29.93,NW,315,3.0,3.0,79,0.00,,SKC,0.00,VWS V14.01,2013-11-17 10:07:00,
2013-11-17 03:12:00,55.0,48.6,29.93,NW,315,5.0,5.0,79,0.00,,SKC,0.00,VWS V14.01,2013-11-17 10:12:00,
2013-11-17 03:17:00,55.0,48.6,29.93,WNW,292,1.0,2.0,79,0.00,,SKC,0.00,VWS V14.01,2013-11-17 10:17:00,
2013-11-17 03:22:00,55.0,48.6,29.93,WNW,292,1.0,2.0,79,0.00,,SKC,0.00,VWS V14.01,2013-11-17 10:22:00,
2013-11-17 03:27:00,55.0,48.3,29.93,WNW,292,1.0,2.0,78,0.00,,SKC,0.00,VWS V14.01,2013-11-17 10:27:00,
2013-11-17 03:32:00,55.0,48.3,29.93,ESE,112,2.0,3.0,78,0.00,,SKC,0.00,VWS V14.01,2013-11-17 10:32:00,
2013-11-17 03:37:00,54.0,47.6,29.93,NE,45,1.0,2.0,79,0.00,,SKC,0.00,VWS V14.01,2013-11-17 10:37:00,
2013-11-17 03:42:00,54.0,48.0,29.93,NE,45,2.0,2.0,80,0.00,,SKC,0.00,VWS V14.01,2013-11-17 10:42:00,
2013-11-17 03:47:00,54.0,48.3,29.93,NE,45,0.0,0.0,81,0.00,,SKC,0.00,VWS V14.01,2013-11-17 10:47:00,
2013-11-17 03:52:00,54.0,48.3,29.93,NE,45,1.0,1.0,81,0.00,,SKC,0.00,VWS V14.01,2013-11-17 10:52:00,
2013-11-17 03:57:00,53.0,47.3,29.93,NE,45,1.0,1.0,81,0.00,,SKC,0.00,VWS V14.01,2013-11-17 10:57:00,
2013-11-17 04:02:00,53.0,47.7,29.93,NE,45,1.0,2.0,82,0.00,,SKC,0.00,VWS V14.01,2013-11-17 11:02:00,
2013-11-17 04:07:00,53.0,47.7,29.93,NNE,22,1.0,2.0,82,0.00,,SKC,0.00,VWS V14.01,2013-11-17 11:07:00,
2013-11-17 04:12:00,53.0,47.7,29.93,NE,45,1.0,1.0,82,0.00,,SKC,0.00,VWS V14.01,2013-11-17 11:12:00,
2013-11-17 04:17:00,53.0,47.7,29.93,NNE,22,3.0,3.0,82,0.00,,SKC,0.00,VWS V14.01,2013-11-17 11:17:00,
2013-11-17 04:22:00,53.0,47.7,29.94,NE,45,1.0,1.0,82,0.00,,SKC,0.00,VWS V14.01,2013-11-17 11:22:00,
2013-11-17 04:27:00,53.0,47.7,29.94,NNE,22,1.0,2.0,82,0.00,,SKC,0.00,VWS V14.01,2013-11-17 11:27:00,
2013-11-17 04:32:00,53.0,47.7,29.94,NNE,22,3.0,4.0,82,0.00,,SKC,0.00,VWS V14.01,2013-11-17 11:32:00,
2013-11-17 04:37:00,53.0,47.7,29.94,NNE,22,2.0,3.0,82,0.00,,SKC,0.00,VWS V14.01,2013-11-17 11:37:00,
2013-11-17 04:42:00,53.0,47.3,29.94,NNE,22,2.0,3.0,81,0.00,,SKC,0.00,VWS V14.01,2013-11-17 11:42:00,
2013-11-17 04:47:00,53.0,47.3,29.94,NNE,22,2.0,3.0,81,0.00,,SKC,0.00,VWS V14.01,2013-11-17 11:47:00,
2013-11-17 04:52:00,53.0,47.3,29.94,NNE,22,1.0,2.0,81,0.00,,SKC,0.00,VWS V14.01,2013-11-17 11:52:00,
2013-11-17 04:57:00,53.0,47.3,29.95,NNE,22,2.0,3.0,81,0.00,,SKC,0.00,VWS V14.01,2013-11-17 11:57:00,
2013-11-17 05:02:00,53.0,47.3,29.95,NNE,22,2.0,3.0,81,0.00,,SKC,0.00,VWS V14.01,2013-11-17 12:02:00,
2013-11-17 05:07:00,53.0,47.3,29.95,NNE,22,0.0,1.0,81,0.00,,SKC,0.00,VWS V14.01,2013-11-17 12:07:00,
2013-11-17 05:12:00,53.0,47.3,29.95,North,0,3.0,3.0,81,0.00,,SKC,0.00,VWS V14.01,2013-11-17 12:12:00,
2013-11-17 05:17:00,53.0,47.7,29.95,NNE,22,2.0,2.0,82,0.00,,SKC,0.00,VWS V14.01,2013-11-17 12:17:00,
2013-11-17 05:22:00,53.0,47.7,29.95,NNE,22,2.0,3.0,82,0.00,,SKC,0.00,VWS V14.01,2013-11-17 12:22:00,
2013-11-17 05:27:00,53.0,47.7,29.95,NNE,22,3.0,3.0,82,0.00,,SKC,0.00,VWS V14.01,2013-11-17 12:27:00,
2013-11-17 05:32:00,53.0,47.7,29.96,NNE,22,3.0,3.0,82,0.00,,SKC,0.00,VWS V14.01,2013-11-17 12:32:00,
2013-11-17 05:37:00,53.0,47.7,29.96,North,0,2.0,3.0,82,0.00,,SKC,0.00,VWS V14.01,2013-11-17 12:37:00,
2013-11-17 05:42:00,53.0,47.7,29.96,NNE,22,1.0,2.0,82,0.00,,SKC,0.00,VWS V14.01,2013-11-17 12:42:00,
2013-11-17 05:47:00,53.0,47.7,29.96,NNE,22,3.0,3.0,82,0.00,,SKC,0.00,VWS V14.01,2013-11-17 12:47:00,
2013-11-17 05:52:00,53.0,47.7,29.96,NE,45,3.0,3.0,82,0.00,,SKC,0.00,VWS V14.01,2013-11-17 12:52:00,
2013-11-17 05:57:00,53.0,47.7,29.96,NNE,22,2.0,2.0,82,0.00,,SKC,0.00,VWS V14.01,2013-11-17 12:57:00,
2013-11-17 06:02:00,53.0,47.7,29.96,NE,45,4.0,4.0,82,0.00,,SKC,0.00,VWS V14.01,2013-11-17 13:02:00,
2013-11-17 06:07:00,53.0,47.7,29.96,NE,45,3.0,3.0,82,0.00,,SKC,0.00,VWS V14.01,2013-11-17 13:07:00,
2013-11-17 06:12:00,53.0,47.7,29.97,NNE,22,3.0,4.0,82,0.00,,SKC,0.00,VWS V14.01,2013-11-17 13:12:00,
2013-11-17 06:17:00,53.0,47.7,29.97,NE,45,3.0,3.0,82,0.00,,SKC,0.00,VWS V14.01,2013-11-17 13:17:00,
2013-11-17 06:22:00,53.0,47.7,29.97,NNE,22,1.0,3.0,82,0.00,,SKC,0.00,VWS V14.01,2013-11-17 13:22:00,
2013-11-17 06:27:00,52.0,47.0,29.97,NE,45,3.0,5.0,83,0.00,,SKC,0.00,VWS V14.01,2013-11-17 13:27:00,
2013-11-17 06:32:00,52.0,47.0,29.98,NE,45,2.0,2.0,83,0.00,,SKC,0.00,VWS V14.01,2013-11-17 13:32:00,
2013-11-17 06:37:00,53.0,48.0,29.98,NNE,22,3.0,3.0,83,0.00,,SKC,0.00,VWS V14.01,2013-11-17 13:37:00,
2013-11-17 06:42:00,53.0,48.0,29.98,NNE,22,2.0,3.0,83,0.00,,SKC,0.00,VWS V14.01,2013-11-17 13:42:00,
2013-11-17 06:47:00,53.0,48.0,29.98,NNE,22,4.0,5.0,83,0.00,,SKC,0.00,VWS V14.01,2013-11-17 13:47:00,
2013-11-17 06:52:00,53.0,48.0,29.98,NNE,22,3.0,3.0,83,0.00,,SKC,0.00,VWS V14.01,2013-11-17 13:52:00,
2013-11-17 06:57:00,53.0,48.0,29.98,North,0,4.0,5.0,83,0.00,,SKC,0.00,VWS V14.01,2013-11-17 13:57:00,
2013-11-17 07:02:00,52.0,47.0,29.98,NNE,22,2.0,3.0,83,0.00,,SKC,0.00,VWS V14.01,2013-11-17 14:02:00,
2013-11-17 07:07:00,52.0,47.0,29.98,NNE,22,3.0,5.0,83,0.00,,SKC,0.00,VWS V14.01,2013-11-17 14:07:00,
2013-11-17 07:12:00,52.0,47.0,29.99,NNE,22,4.0,4.0,83,0.00,,SKC,0.00,VWS V14.01,2013-11-17 14:12:00,
2013-11-17 07:17:00,52.0,47.0,29.99,NNE,22,3.0,3.0,83,0.00,,SKC,0.00,VWS V14.01,2013-11-17 14:17:00,
2013-11-17 07:22:00,52.0,47.3,29.99,NNE,22,2.0,3.0,84,0.00,,SKC,0.00,VWS V14.01,2013-11-17 14:22:00,
2013-11-17 07:27:00,53.0,48.3,29.99,NNE,22,3.0,5.0,84,0.00,,SKC,0.00,VWS V14.01,2013-11-17 14:27:00,
2013-11-17 07:32:00,53.0,48.3,30.00,NNE,22,4.0,4.0,84,0.00,,SKC,0.00,VWS V14.01,2013-11-17 14:32:00,
2013-11-17 07:37:00,53.0,48.3,30.00,NE,45,4.0,4.0,84,0.00,,SKC,0.00,VWS V14.01,2013-11-17 14:37:00,
2013-11-17 07:42:00,53.0,48.3,30.00,NE,45,3.0,3.0,84,0.00,,SKC,0.00,VWS V14.01,2013-11-17 14:42:00,
2013-11-17 07:47:00,53.0,48.3,30.00,NNW,338,3.0,6.0,84,0.00,,SKC,0.00,VWS V14.01,2013-11-17 14:47:00,
2013-11-17 07:52:00,53.0,48.0,30.01,NE,45,3.0,3.0,83,0.00,,SKC,0.00,VWS V14.01,2013-11-17 14:52:00,
2013-11-17 07:57:00,54.0,49.0,30.01,NE,45,0.0,0.0,83,0.00,,SKC,0.00,VWS V14.01,2013-11-17 14:57:00,
2013-11-17 08:02:00,54.0,48.6,30.01,NNE,22,3.0,4.0,82,0.00,,SKC,0.00,VWS V14.01,2013-11-17 15:02:00,
2013-11-17 08:07:00,55.0,49.3,30.01,North,0,1.0,2.0,81,0.00,,SKC,0.00,VWS V14.01,2013-11-17 15:07:00,
2013-11-17 08:12:00,56.0,49.6,30.01,NW,315,1.0,2.0,79,0.00,,SKC,0.00,VWS V14.01,2013-11-17 15:12:00,
2013-11-17 08:17:00,57.0,50.2,30.01,ENE,68,1.0,2.0,78,0.00,,SKC,0.00,VWS V14.01,2013-11-17 15:17:00,
2013-11-17 08:22:00,58.0,50.1,30.01,NE,45,3.0,3.0,75,0.00,,SKC,0.00,VWS V14.01,2013-11-17 15:22:00,
2013-11-17 08:27:00,58.0,49.8,30.01,North,0,2.0,2.0,74,0.00,,SKC,0.00,VWS V14.01,2013-11-17 15:27:00,
2013-11-17 08:32:00,59.0,50.4,30.01,NE,45,1.0,1.0,73,0.00,,SKC,0.00,VWS V14.01,2013-11-17 15:32:00,
2013-11-17 08:37:00,59.0,50.0,30.01,East,90,1.0,1.0,72,0.00,,SKC,0.00,VWS V14.01,2013-11-17 15:37:00,
2013-11-17 08:42:00,59.0,49.2,30.02,SE,135,1.0,2.0,70,0.00,,SKC,0.00,VWS V14.01,2013-11-17 15:42:00,
2013-11-17 08:47:00,59.0,48.9,30.02,SE,135,1.0,2.0,69,0.00,,SKC,0.00,VWS V14.01,2013-11-17 15:47:00,
2013-11-17 08:52:00,60.0,50.2,30.02,SE,135,1.0,1.0,70,0.00,,SKC,0.00,VWS V14.01,2013-11-17 15:52:00,
2013-11-17 08:57:00,60.0,49.8,30.02,ESE,112,3.0,3.0,69,0.00,,SKC,0.00,VWS V14.01,2013-11-17 15:57:00,
2013-11-17 09:02:00,61.0,49.2,30.02,SSE,158,3.0,5.0,65,0.00,,SKC,0.00,VWS V14.01,2013-11-17 16:02:00,
2013-11-17 09:07:00,61.0,48.8,30.02,SE,135,2.0,3.0,64,0.00,,SKC,0.00,VWS V14.01,2013-11-17 16:07:00,
2013-11-17 09:12:00,61.0,48.8,30.03,SE,135,3.0,3.0,64,0.00,,SKC,0.00,VWS V14.01,2013-11-17 16:12:00,
2013-11-17 09:17:00,62.0,49.7,30.03,SSE,158,4.0,4.0,64,0.00,,SKC,0.00,VWS V14.01,2013-11-17 16:17:00,
2013-11-17 09:22:00,62.0,49.7,30.03,ESE,112,3.0,3.0,64,0.00,,SKC,0.00,VWS V14.01,2013-11-17 16:22:00,
2013-11-17 09:27:00,62.0,50.1,30.03,SE,135,1.0,2.0,65,0.00,,SKC,0.00,VWS V14.01,2013-11-17 16:27:00,
2013-11-17 09:32:00,62.0,49.7,30.03,ENE,68,1.0,2.0,64,0.00,,SKC,0.00,VWS V14.01,2013-11-17 16:32:00,
2013-11-17 09:37:00,63.0,50.2,30.03,SE,135,1.0,1.0,63,0.00,,SKC,0.00,VWS V14.01,2013-11-17 16:37:00,
2013-11-17 09:42:00,64.0,50.7,30.04,SSE,158,3.0,3.0,62,0.00,,SKC,0.00,VWS V14.01,2013-11-17 16:42:00,
2013-11-17 09:47:00,64.0,49.8,30.04,SW,225,3.0,6.0,60,0.00,,SKC,0.00,VWS V14.01,2013-11-17 16:47:00,
2013-11-17 09:52:00,63.0,49.8,30.04,WNW,292,0.0,0.0,62,0.00,,SKC,0.00,VWS V14.01,2013-11-17 16:52:00,
2013-11-17 09:57:00,63.0,49.4,30.04,WSW,248,4.0,4.0,61,0.00,,SKC,0.00,VWS V14.01,2013-11-17 16:57:00,
2013-11-17 10:02:00,64.0,49.8,30.04,SSE,158,3.0,4.0,60,0.00,,SKC,0.00,VWS V14.01,2013-11-17 17:02:00,
2013-11-17 10:07:00,66.0,50.8,30.04,SSW,202,3.0,4.0,58,0.00,,SKC,0.00,VWS V14.01,2013-11-17 17:07:00,
2013-11-17 10:12:00,66.0,49.9,30.04,SW,225,3.0,3.0,56,0.00,,SKC,0.00,VWS V14.01,2013-11-17 17:12:00,
2013-11-17 10:17:00,66.0,49.4,30.04,SSW,202,3.0,4.0,55,0.00,,SKC,0.00,VWS V14.01,2013-11-17 17:17:00,
2013-11-17 10:22:00,65.0,48.9,30.04,WNW,292,4.0,4.0,56,0.00,,SKC,0.00,VWS V14.01,2013-11-17 17:22:00,
2013-11-17 10:27:00,66.0,48.9,30.04,West,270,3.0,3.0,54,0.00,,SKC,0.00,VWS V14.01,2013-11-17 17:27:00,
2013-11-17 10:32:00,67.0,48.8,30.04,SW,225,0.0,0.0,52,0.00,,SKC,0.00,VWS V14.01,2013-11-17 17:32:00,
2013-11-17 10:37:00,67.0,47.2,30.04,SW,225,3.0,3.0,49,0.00,,SKC,0.00,VWS V14.01,2013-11-17 17:37:00,
2013-11-17 10:42:00,68.0,48.2,30.04,NNW,338,1.0,2.0,49,0.00,,SKC,0.00,VWS V14.01,2013-11-17 17:42:00,
2013-11-17 10:47:00,66.0,47.4,30.04,SW,225,5.0,5.0,51,0.00,,SKC,0.00,VWS V14.01,2013-11-17 17:47:00,
2013-11-17 10:52:00,67.0,47.2,30.04,NNW,338,1.0,1.0,49,0.00,,SKC,0.00,VWS V14.01,2013-11-17 17:52:00,
2013-11-17 10:57:00,68.0,47.6,30.04,SE,135,1.0,3.0,48,0.00,,SKC,0.00,VWS V14.01,2013-11-17 17:57:00,
2013-11-17 11:02:00,69.0,47.4,30.04,SE,135,5.0,5.0,46,0.00,,SKC,0.00,VWS V14.01,2013-11-17 18:02:00,
2013-11-17 11:07:00,69.0,45.6,30.04,SSE,158,10.0,11.0,43,0.00,,SKC,0.00,VWS V14.01,2013-11-17 18:07:00,
2013-11-17 11:12:00,69.0,45.6,30.03,SE,135,5.0,6.0,43,0.00,,SKC,0.00,VWS V14.01,2013-11-17 18:12:00,
2013-11-17 11:17:00,70.0,45.9,30.03,SW,225,5.0,8.0,42,0.00,,SKC,0.00,VWS V14.01,2013-11-17 18:17:00,
2013-11-17 11:22:00,69.0,45.0,30.03,SE,135,8.0,8.0,42,0.00,,SKC,0.00,VWS V14.01,2013-11-17 18:22:00,
2013-11-17 11:27:00,70.0,45.9,30.03,SE,135,11.0,11.0,42,0.00,,SKC,0.00,VWS V14.01,2013-11-17 18:27:00,
2013-11-17 11:32:00,70.0,45.9,30.03,SSE,158,7.0,7.0,42,0.00,,SKC,0.00,VWS V14.01,2013-11-17 18:32:00,
2013-11-17 11:37:00,70.0,45.2,30.03,WSW,248,10.0,10.0,41,0.00,,SKC,0.00,VWS V14.01,2013-11-17 18:37:00,
2013-11-17 11:42:00,71.0,46.1,30.03,SSE,158,10.0,11.0,41,0.00,,SKC,0.00,VWS V14.01,2013-11-17 18:42:00,
2013-11-17 11:47:00,71.0,45.5,30.02,ESE,112,3.0,5.0,40,0.00,,SKC,0.00,VWS V14.01,2013-11-17 18:47:00,
2013-11-17 11:52:00,70.0,44.6,30.02,ESE,112,5.0,9.0,40,0.00,,SKC,0.00,VWS V14.01,2013-11-17 18:52:00,
2013-11-17 11:57:00,70.0,44.6,30.02,SSE,158,4.0,6.0,40,0.00,,SKC,0.00,VWS V14.01,2013-11-17 18:57:00,
2013-11-17 12:02:00,71.0,44.8,30.02,South,180,3.0,4.0,39,0.00,,SKC,0.00,VWS V14.01,2013-11-17 19:02:00,
2013-11-17 12:07:00,72.0,45.0,30.02,SE,135,5.0,6.0,38,0.00,,SKC,0.00,VWS V14.01,2013-11-17 19:07:00,
2013-11-17 12:12:00,71.0,44.8,30.01,ESE,112,8.0,9.0,39,0.00,,SKC,0.00,VWS V14.01,2013-11-17 19:12:00,
2013-11-17 12:17:00,70.0,44.6,30.01,ESE,112,8.0,9.0,40,0.00,,SKC,0.00,VWS V14.01,2013-11-17 19:17:00,
2013-11-17 12:22:00,70.0,44.6,30.01,ESE,112,10.0,11.0,40,0.00,,SKC,0.00,VWS V14.01,2013-11-17 19:22:00,
2013-11-17 12:27:00,71.0,45.5,30.01,SSE,158,6.0,10.0,40,0.00,,SKC,0.00,VWS V14.01,2013-11-17 19:27:00,
2013-11-17 12:32:00,71.0,44.8,30.01,South,180,6.0,6.0,39,0.00,,SKC,0.00,VWS V14.01,2013-11-17 19:32:00,
2013-11-17 12:37:00,72.0,45.7,30.00,SSE,158,6.0,6.0,39,0.00,,SKC,0.00,VWS V14.01,2013-11-17 19:37:00,
2013-11-17 12:42:00,72.0,45.7,30.00,SW,225,1.0,3.0,39,0.00,,SKC,0.00,VWS V14.01,2013-11-17 19:42:00,
2013-11-17 12:47:00,72.0,45.0,30.00,SE,135,6.0,10.0,38,0.00,,SKC,0.00,VWS V14.01,2013-11-17 19:47:00,
2013-11-17 12:52:00,72.0,45.0,29.99,SE,135,3.0,4.0,38,0.00,,SKC,0.00,VWS V14.01,2013-11-17 19:52:00,
2013-11-17 12:57:00,72.0,45.0,29.99,SSE,158,11.0,12.0,38,0.00,,SKC,0.00,VWS V14.01,2013-11-17 19:57:00,
2013-11-17 13:02:00,73.0,45.9,29.99,South,180,6.0,8.0,38,0.00,,SKC,0.00,VWS V14.01,2013-11-17 20:02:00,
2013-11-17 13:07:00,72.0,45.0,29.99,SE,135,7.0,8.0,38,0.00,,SKC,0.00,VWS V14.01,2013-11-17 20:07:00,
2013-11-17 13:12:00,73.0,45.9,29.99,WSW,248,3.0,4.0,38,0.00,,SKC,0.00,VWS V14.01,2013-11-17 20:12:00,
2013-11-17 13:17:00,73.0,45.2,29.99,ESE,112,9.0,9.0,37,0.00,,SKC,0.00,VWS V14.01,2013-11-17 20:17:00,
2013-11-17 13:22:00,72.0,45.0,29.99,SSE,158,8.0,11.0,38,0.00,,SKC,0.00,VWS V14.01,2013-11-17 20:22:00,
2013-11-17 13:27:00,73.0,45.2,29.98,ESE,112,3.0,4.0,37,0.00,,SKC,0.00,VWS V14.01,2013-11-17 20:27:00,
2013-11-17 13:32:00,74.0,46.1,29.98,SSE,158,9.0,10.0,37,0.00,,SKC,0.00,VWS V14.01,2013-11-17 20:32:00,
2013-11-17 13:37:00,73.0,45.2,29.98,SSE,158,4.0,5.0,37,0.00,,SKC,0.00,VWS V14.01,2013-11-17 20:37:00,
2013-11-17 13:42:00,73.0,45.2,29.98,East,90,6.0,8.0,37,0.00,,SKC,0.00,VWS V14.01,2013-11-17 20:42:00,
2013-11-17 13:47:00,73.0,45.2,29.98,ESE,112,5.0,9.0,37,0.00,,SKC,0.00,VWS V14.01,2013-11-17 20:47:00,
2013-11-17 13:52:00,73.0,45.2,29.98,WSW,248,6.0,8.0,37,0.00,,SKC,0.00,VWS V14.01,2013-11-17 20:52:00,
2013-11-17 13:57:00,74.0,45.4,29.98,SSE,158,1.0,1.0,36,0.00,,SKC,0.00,VWS V14.01,2013-11-17 20:57:00,
2013-11-17 14:02:00,74.0,45.4,29.97,SE,135,8.0,10.0,36,0.00,,SKC,0.00,VWS V14.01,2013-11-17 21:02:00,
2013-11-17 14:07:00,74.0,45.4,29.98,ESE,112,5.0,6.0,36,0.00,,SKC,0.00,VWS V14.01,2013-11-17 21:07:00,
2013-11-17 14:12:00,73.0,45.2,29.97,SSE,158,3.0,4.0,37,0.00,,SKC,0.00,VWS V14.01,2013-11-17 21:12:00,
2013-11-17 14:17:00,73.0,45.9,29.97,SSE,158,5.0,6.0,38,0.00,,SKC,0.00,VWS V14.01,2013-11-17 21:17:00,
2013-11-17 14:22:00,73.0,45.2,29.97,WSW,248,2.0,3.0,37,0.00,,SKC,0.00,VWS V14.01,2013-11-17 21:22:00,
2013-11-17 14:27:00,74.0,45.4,29.97,ESE,112,5.0,6.0,36,0.00,,SKC,0.00,VWS V14.01,2013-11-17 21:27:00,
2013-11-17 14:32:00,75.0,46.3,29.97,SE,135,3.0,3.0,36,0.00,,SKC,0.00,VWS V14.01,2013-11-17 21:32:00,
2013-11-17 14:37:00,75.0,46.3,29.97,SSE,158,6.0,8.0,36,0.00,,SKC,0.00,VWS V14.01,2013-11-17 21:37:00,
2013-11-17 14:42:00,74.0,45.4,29.97,ESE,112,5.0,6.0,36,0.00,,SKC,0.00,VWS V14.01,2013-11-17 21:42:00,
2013-11-17 14:47:00,74.0,46.1,29.97,ESE,112,3.0,3.0,37,0.00,,SKC,0.00,VWS V14.01,2013-11-17 21:47:00,
2013-11-17 14:52:00,74.0,46.1,29.97,SE,135,1.0,2.0,37,0.00,,SKC,0.00,VWS V14.01,2013-11-17 21:52:00,
2013-11-17 14:57:00,74.0,46.1,29.97,SE,135,3.0,4.0,37,0.00,,SKC,0.00,VWS V14.01,2013-11-17 21:57:00,
2013-11-17 15:02:00,75.0,46.3,29.96,WSW,248,2.0,3.0,36,0.00,,SKC,0.00,VWS V14.01,2013-11-17 22:02:00,
2013-11-17 15:07:00,75.0,46.3,29.96,SSE,158,2.0,2.0,36,0.00,,SKC,0.00,VWS V14.01,2013-11-17 22:07:00,
2013-11-17 15:12:00,75.0,45.5,29.96,SSE,158,4.0,4.0,35,0.00,,SKC,0.00,VWS V14.01,2013-11-17 22:12:00,
2013-11-17 15:18:00,75.0,45.5,29.96,SSE,158,5.0,5.0,35,0.00,,SKC,0.00,VWS V14.01,2013-11-17 22:18:00,
2013-11-17 15:23:00,73.0,45.2,29.96,SSE,158,7.0,10.0,37,0.00,,SKC,0.00,VWS V14.01,2013-11-17 22:23:00,
2013-11-17 15:28:00,73.0,45.2,29.96,SE,135,4.0,5.0,37,0.00,,SKC,0.00,VWS V14.01,2013-11-17 22:28:00,
2013-11-17 15:33:00,72.0,45.0,29.96,SE,135,4.0,4.0,38,0.00,,SKC,0.00,VWS V14.01,2013-11-17 22:33:00,
2013-11-17 15:38:00,73.0,45.9,29.96,South,180,1.0,2.0,38,0.00,,SKC,0.00,VWS V14.01,2013-11-17 22:38:00,
2013-11-17 15:43:00,73.0,45.2,29.96,South,180,1.0,1.0,37,0.00,,SKC,0.00,VWS V14.01,2013-11-17 22:43:00,
2013-11-17 15:48:00,74.0,45.4,29.96,SW,225,4.0,4.0,36,0.00,,SKC,0.00,VWS V14.01,2013-11-17 22:48:00,
2013-11-17 15:53:00,73.0,45.2,29.96,NW,315,6.0,6.0,37,0.00,,SKC,0.00,VWS V14.01,2013-11-17 22:53:00,
2013-11-17 15:58:00,73.0,45.9,29.96,NW,315,1.0,1.0,38,0.00,,SKC,0.00,VWS V14.01,2013-11-17 22:58:00,
2013-11-17 16:03:00,72.0,45.0,29.96,NW,315,3.0,5.0,38,0.00,,SKC,0.00,VWS V14.01,2013-11-17 23:03:00,
2013-11-17 16:08:00,72.0,45.7,29.96,WNW,292,5.0,5.0,39,0.00,,SKC,0.00,VWS V14.01,2013-11-17 23:08:00,
2013-11-17 16:13:00,73.0,45.9,29.96,NW,315,6.0,6.0,38,0.00,,SKC,0.00,VWS V14.01,2013-11-17 23:13:00,
2013-11-17 16:19:00,74.0,46.1,29.97,South,180,2.0,3.0,37,0.00,,SKC,0.00,VWS V14.01,2013-11-17 23:19:00,
2013-11-17 16:24:00,74.0,46.1,29.96,WSW,248,3.0,4.0,37,0.00,,SKC,0.00,VWS V14.01,2013-11-17 23:24:00,
2013-11-17 16:29:00,73.0,45.9,29.96,WNW,292,4.0,5.0,38,0.00,,SKC,0.00,VWS V14.01,2013-11-17 23:29:00,
2013-11-17 16:34:00,73.0,45.9,29.96,WSW,248,6.0,6.0,38,0.00,,SKC,0.00,VWS V14.01,2013-11-17 23:34:00,
2013-11-17 16:39:00,72.0,45.0,29.96,WSW,248,3.0,3.0,38,0.00,,SKC,0.00,VWS V14.01,2013-11-17 23:39:00,
2013-11-17 16:44:00,72.0,45.7,29.96,WSW,248,1.0,1.0,39,0.00,,SKC,0.00,VWS V14.01,2013-11-17 23:44:00,
2013-11-17 16:49:00,72.0,45.7,29.96,WSW,248,0.0,0.0,39,0.00,,SKC,0.00,VWS V14.01,2013-11-17 23:49:00,
2013-11-17 16:54:00,72.0,45.0,29.96,ESE,112,2.0,3.0,38,0.00,,SKC,0.00,VWS V14.01,2013-11-17 23:54:00,
2013-11-17 16:59:00,72.0,45.7,29.96,ESE,112,0.0,0.0,39,0.00,,SKC,0.00,VWS V14.01,2013-11-17 23:59:00,
2013-11-17 17:04:00,71.0,44.8,29.96,WNW,292,1.0,2.0,39,0.00,,SKC,0.00,VWS V14.01,2013-11-18 00:04:00,
2013-11-17 17:09:00,71.0,46.1,29.96,WNW,292,1.0,1.0,41,0.00,,SKC,0.00,VWS V14.01,2013-11-18 00:09:00,
2013-11-17 17:14:00,71.0,46.1,29.96,WNW,292,2.0,2.0,41,0.00,,SKC,0.00,VWS V14.01,2013-11-18 00:14:00,
2013-11-17 17:19:00,70.0,45.2,29.97,NNW,338,3.0,3.0,41,0.00,,SKC,0.00,VWS V14.01,2013-11-18 00:19:00,
2013-11-17 17:24:00,70.0,45.9,29.97,WNW,292,3.0,3.0,42,0.00,,SKC,0.00,VWS V14.01,2013-11-18 00:24:00,
2013-11-17 17:29:00,69.0,45.0,29.97,WNW,292,3.0,3.0,42,0.00,,SKC,0.00,VWS V14.01,2013-11-18 00:29:00,
2013-11-17 17:34:00,69.0,45.6,29.97,NW,315,3.0,3.0,43,0.00,,SKC,0.00,VWS V14.01,2013-11-18 00:34:00,
2013-11-17 17:39:00,69.0,45.6,29.97,WNW,292,5.0,6.0,43,0.00,,SKC,0.00,VWS V14.01,2013-11-18 00:39:00,
2013-11-17 17:44:00,69.0,45.6,29.97,NW,315,4.0,5.0,43,0.00,,SKC,0.00,VWS V14.01,2013-11-18 00:44:00,
2013-11-17 17:49:00,69.0,45.6,29.97,WNW,292,3.0,3.0,43,0.00,,SKC,0.00,VWS V14.01,2013-11-18 00:49:00,
2013-11-17 17:54:00,68.0,45.3,29.98,NW,315,3.0,3.0,44,0.00,,SKC,0.00,VWS V14.01,2013-11-18 00:54:00,
2013-11-17 17:59:00,68.0,45.3,29.98,NW,315,3.0,3.0,44,0.00,,SKC,0.00,VWS V14.01,2013-11-18 00:59:00,
2013-11-17 18:04:00,68.0,45.3,29.99,West,270,4.0,4.0,44,0.00,,SKC,0.00,VWS V14.01,2013-11-18 01:04:00,
2013-11-17 18:09:00,68.0,45.9,29.98,NW,315,3.0,3.0,45,0.00,,SKC,0.00,VWS V14.01,2013-11-18 01:09:00,
2013-11-17 18:14:00,68.0,45.9,29.98,NNW,338,3.0,3.0,45,0.00,,SKC,0.00,VWS V14.01,2013-11-18 01:14:00,
2013-11-17 18:19:00,67.0,45.0,29.98,NW,315,3.0,4.0,45,0.00,,SKC,0.00,VWS V14.01,2013-11-18 01:19:00,
2013-11-17 18:24:00,67.0,45.6,29.98,NW,315,4.0,5.0,46,0.00,,SKC,0.00,VWS V14.01,2013-11-18 01:24:00,
2013-11-17 18:29:00,67.0,45.6,29.99,NW,315,1.0,1.0,46,0.00,,SKC,0.00,VWS V14.01,2013-11-18 01:29:00,
2013-11-17 18:34:00,67.0,45.6,29.99,NW,315,1.0,1.0,46,0.00,,SKC,0.00,VWS V14.01,2013-11-18 01:34:00,
2013-11-17 18:39:00,66.0,45.2,29.99,NW,315,0.0,0.0,47,0.00,,SKC,0.00,VWS V14.01,2013-11-18 01:39:00,
2013-11-17 18:44:00,66.0,45.8,29.99,NW,315,0.0,1.0,48,0.00,,SKC,0.00,VWS V14.01,2013-11-18 01:44:00,
2013-11-17 18:49:00,66.0,45.8,29.99,NE,45,2.0,3.0,48,0.00,,SKC,0.00,VWS V14.01,2013-11-18 01:49:00,
2013-11-17 18:54:00,65.0,44.3,29.99,ENE,68,3.0,3.0,47,0.00,,SKC,0.00,VWS V14.01,2013-11-18 01:54:00,
2013-11-17 18:59:00,65.0,44.3,29.99,NE,45,3.0,3.0,47,0.00,,SKC,0.00,VWS V14.01,2013-11-18 01:59:00,
2013-11-17 19:04:00,65.0,44.3,29.99,NNE,22,1.0,1.0,47,0.00,,SKC,0.00,VWS V14.01,2013-11-18 02:04:00,
2013-11-17 19:09:00,65.0,44.3,29.99,NNE,22,1.0,2.0,47,0.00,,SKC,0.00,VWS V14.01,2013-11-18 02:09:00,
2013-11-17 19:14:00,65.0,44.8,29.99,East,90,2.0,2.0,48,0.00,,SKC,0.00,VWS V14.01,2013-11-18 02:14:00,
2013-11-17 19:19:00,64.0,44.5,30.00,East,90,3.0,3.0,49,0.00,,SKC,0.00,VWS V14.01,2013-11-18 02:19:00,
2013-11-17 19:24:00,64.0,45.0,30.00,ENE,68,5.0,5.0,50,0.00,,SKC,0.00,VWS V14.01,2013-11-18 02:24:00,
2013-11-17 19:29:00,64.0,45.5,30.00,NE,45,3.0,5.0,51,0.00,,SKC,0.00,VWS V14.01,2013-11-18 02:29:00,
2013-11-17 19:34:00,64.0,45.5,30.00,NE,45,3.0,3.0,51,0.00,,SKC,0.00,VWS V14.01,2013-11-18 02:34:00,
2013-11-17 19:39:00,65.0,45.9,30.00,ENE,68,2.0,3.0,50,0.00,,SKC,0.00,VWS V14.01,2013-11-18 02:39:00,
2013-11-17 19:44:00,65.0,45.9,30.00,ESE,112,3.0,3.0,50,0.00,,SKC,0.00,VWS V14.01,2013-11-18 02:44:00,
2013-11-17 19:49:00,65.0,45.9,30.00,ENE,68,3.0,3.0,50,0.00,,SKC,0.00,VWS V14.01,2013-11-18 02:49:00,
2013-11-17 19:54:00,65.0,45.9,30.00,East,90,1.0,3.0,50,0.00,,SKC,0.00,VWS V14.01,2013-11-18 02:54:00,
2013-11-17 19:59:00,65.0,45.9,30.00,ENE,68,1.0,2.0,50,0.00,,SKC,0.00,VWS V14.01,2013-11-18 02:59:00,
2013-11-17 20:04:00,65.0,46.5,30.00,NE,45,3.0,3.0,51,0.00,,SKC,0.00,VWS V14.01,2013-11-18 03:04:00,
2013-11-17 20:09:00,64.0,45.5,30.00,NE,45,2.0,3.0,51,0.00,,SKC,0.00,VWS V14.01,2013-11-18 03:09:00,
2013-11-17 20:14:00,64.0,45.5,30.00,NE,45,2.0,2.0,51,0.00,,SKC,0.00,VWS V14.01,2013-11-18 03:14:00,
2013-11-17 20:19:00,64.0,46.0,30.00,NE,45,3.0,3.0,52,0.00,,SKC,0.00,VWS V14.01,2013-11-18 03:19:00,
2013-11-17 20:24:00,63.0,45.1,30.00,NE,45,3.0,3.0,52,0.00,,SKC,0.00,VWS V14.01,2013-11-18 03:24:00,
2013-11-17 20:30:00,63.0,45.1,30.00,NE,45,2.0,3.0,52,0.00,,SKC,0.00,VWS V14.01,2013-11-18 03:30:00,
2013-11-17 20:35:00,63.0,45.1,30.00,North,0,4.0,5.0,52,0.00,,SKC,0.00,VWS V14.01,2013-11-18 03:35:00,
2013-11-17 20:40:00,63.0,45.1,30.00,NNE,22,3.0,4.0,52,0.00,,SKC,0.00,VWS V14.01,2013-11-18 03:40:00,
2013-11-17 20:45:00,63.0,45.1,30.00,NNE,22,1.0,2.0,52,0.00,,SKC,0.00,VWS V14.01,2013-11-18 03:45:00,
2013-11-17 20:50:00,62.0,44.2,30.01,NE,45,4.0,5.0,52,0.00,,SKC,0.00,VWS V14.01,2013-11-18 03:50:00,
2013-11-17 20:55:00,62.0,44.2,30.01,NNE,22,2.0,2.0,52,0.00,,SKC,0.00,VWS V14.01,2013-11-18 03:55:00,
2013-11-17 21:00:00,62.0,43.7,30.01,NNE,22,1.0,2.0,51,0.00,,SKC,0.00,VWS V14.01,2013-11-18 04:00:00,
2013-11-17 21:05:00,62.0,43.2,30.01,NE,45,4.0,4.0,50,0.00,,SKC,0.00,VWS V14.01,2013-11-18 04:05:00,
2013-11-17 21:10:00,63.0,43.6,30.01,NE,45,2.0,2.0,49,0.00,,SKC,0.00,VWS V14.01,2013-11-18 04:10:00,
2013-11-17 21:15:00,63.0,43.6,30.01,NNE,22,2.0,3.0,49,0.00,,SKC,0.00,VWS V14.01,2013-11-18 04:15:00,
2013-11-17 21:20:00,63.0,43.0,30.01,NE,45,1.0,1.0,48,0.00,,SKC,0.00,VWS V14.01,2013-11-18 04:20:00,
2013-11-17 21:25:00,63.0,43.0,30.01,NE,45,2.0,3.0,48,0.00,,SKC,0.00,VWS V14.01,2013-11-18 04:25:00,
2013-11-17 21:30:00,63.0,43.0,30.01,NE,45,1.0,2.0,48,0.00,,SKC,0.00,VWS V14.01,2013-11-18 04:30:00,
2013-11-17 21:35:00,63.0,42.5,30.01,NE,45,1.0,2.0,47,0.00,,SKC,0.00,VWS V14.01,2013-11-18 04:35:00,
2013-11-17 21:40:00,63.0,42.5,30.01,NNE,22,1.0,2.0,47,0.00,,SKC,0.00,VWS V14.01,2013-11-18 04:40:00,
2013-11-17 21:45:00,63.0,42.5,30.02,NNE,22,1.0,2.0,47,0.00,,SKC,0.00,VWS V14.01,2013-11-18 04:45:00,
2013-11-17 21:50:00,63.0,43.0,30.02,SSW,202,1.0,1.0,48,0.00,,SKC,0.00,VWS V14.01,2013-11-18 04:50:00,
2013-11-17 21:55:00,63.0,43.6,30.02,SSW,202,0.0,0.0,49,0.00,,SKC,0.00,VWS V14.01,2013-11-18 04:55:00,
2013-11-17 22:00:00,62.0,42.6,30.02,ENE,68,2.0,2.0,49,0.00,,SKC,0.00,VWS V14.01,2013-11-18 05:00:00,
2013-11-17 22:01:00,62.0,42.6,30.02,East,90,2.0,3.0,49,0.00,,SKC,0.00,VWS V14.01,2013-11-18 05:01:00,
2013-11-17 22:02:00,62.0,43.2,30.02,East,90,4.0,5.0,50,0.00,,SKC,0.00,VWS V14.01,2013-11-18 05:02:00,
2013-11-17 22:03:00,62.0,43.2,30.02,ENE,68,3.0,3.0,50,0.00,,SKC,0.00,VWS V14.01,2013-11-18 05:03:00,
2013-11-17 22:04:00,62.0,43.2,30.02,ENE,68,1.0,1.0,50,0.00,,SKC,0.00,VWS V14.01,2013-11-18 05:04:00,
2013-11-17 22:07:00,62.0,43.7,30.02,ENE,68,3.0,3.0,51,0.00,,SKC,0.00,VWS V14.01,2013-11-18 05:07:00,
2013-11-17 22:08:00,61.0,42.8,30.02,ENE,68,1.0,2.0,51,0.00,,SKC,0.00,VWS V14.01,2013-11-18 05:08:00,
2013-11-17 22:13:00,61.0,42.8,30.02,ENE,68,0.0,1.0,51,0.00,,SKC,0.00,VWS V14.01,2013-11-18 05:13:00,
2013-11-17 22:18:00,61.0,43.3,30.03,ENE,68,1.0,2.0,52,0.00,,SKC,0.00,VWS V14.01,2013-11-18 05:18:00,
2013-11-17 22:23:00,61.0,43.3,30.03,NE,45,2.0,2.0,52,0.00,,SKC,0.00,VWS V14.01,2013-11-18 05:23:00,
2013-11-17 22:28:00,61.0,43.3,30.03,NNE,22,3.0,3.0,52,0.00,,SKC,0.00,VWS V14.01,2013-11-18 05:28:00,
2013-11-17 22:33:00,60.0,42.3,30.02,NE,45,3.0,3.0,52,0.00,,SKC,0.00,VWS V14.01,2013-11-18 05:33:00,
2013-11-17 22:38:00,61.0,43.3,30.02,NE,45,1.0,1.0,52,0.00,,SKC,0.00,VWS V14.01,2013-11-18 05:38:00,
2013-11-17 22:43:00,61.0,43.3,30.03,NNE,22,3.0,3.0,52,0.00,,SKC,0.00,VWS V14.01,2013-11-18 05:43:00,
2013-11-17 22:48:00,60.0,42.3,30.03,NW,315,3.0,3.0,52,0.00,,SKC,0.00,VWS V14.01,2013-11-18 05:48:00,
2013-11-17 22:53:00,60.0,42.3,30.03,NNW,338,2.0,3.0,52,0.00,,SKC,0.00,VWS V14.01,2013-11-18 05:53:00,
2013-11-17 22:58:00,60.0,42.3,30.03,NNW,338,1.0,1.0,52,0.00,,SKC,0.00,VWS V14.01,2013-11-18 05:58:00,
2013-11-17 23:03:00,60.0,42.8,30.03,NNW,338,1.0,1.0,53,0.00,,SKC,0.00,VWS V14.01,2013-11-18 06:03:00,
2013-11-17 23:08:00,60.0,42.8,30.03,NNW,338,0.0,0.0,53,0.00,,SKC,0.00,VWS V14.01,2013-11-18 06:08:00,
2013-11-17 23:13:00,60.0,42.8,30.03,NNW,338,0.0,0.0,53,0.00,,SKC,0.00,VWS V14.01,2013-11-18 06:13:00,
2013-11-17 23:18:00,60.0,43.3,30.03,NNW,338,0.0,0.0,54,0.00,,SKC,0.00,VWS V14.01,2013-11-18 06:18:00,
2013-11-17 23:23:00,60.0,43.3,30.03,NNW,338,1.0,1.0,54,0.00,,SKC,0.00,VWS V14.01,2013-11-18 06:23:00,
2013-11-17 23:28:00,60.0,43.3,30.03,NNW,338,2.0,2.0,54,0.00,,SKC,0.00,VWS V14.01,2013-11-18 06:28:00,
2013-11-17 23:33:00,59.0,42.9,30.03,NNW,338,1.0,1.0,55,0.00,,SKC,0.00,VWS V14.01,2013-11-18 06:33:00,
2013-11-17 23:38:00,59.0,43.3,30.03,WNW,292,2.0,3.0,56,0.00,,SKC,0.00,VWS V14.01,2013-11-18 06:38:00,
2013-11-17 23:43:00,59.0,44.3,30.03,West,270,4.0,4.0,58,0.00,,SKC,0.00,VWS V14.01,2013-11-18 06:43:00,
2013-11-17 23:48:00,60.0,45.7,30.03,WSW,248,1.0,1.0,59,0.00,,SKC,0.00,VWS V14.01,2013-11-18 06:48:00,
2013-11-17 23:53:00,59.0,44.7,30.03,WSW,248,1.0,1.0,59,0.00,,SKC,0.00,VWS V14.01,2013-11-18 06:53:00,
2013-11-17 23:58:00,59.0,44.7,30.03,WSW,248,1.0,1.0,59,0.00,,SKC,0.00,VWS V14.01,2013-11-18 06:58:00,